Flag for U.S.A. Weather past 2 weeks in New York, New York, U.S.A.

Now
71 °F

Scattered clouds.


Feels Like: 76 °F
Forecast: 67 / 73 °F
Wind: 3 mph from North

Location: New York City - Central Park

Current Time: Jul 4, 2015 at 8:17:21 AM

Latest Report: Jul 4, 2015 at 7:51 AM


Visibility: 10 mi

Pressure: 29.94 "Hg

Humidity: 61%

Dew point: 57 °F

Location of New YorkLocation

Historic Weather in New York — Graph

°F

New York temperature yesterday

Maximum temperature yesterday: 80 °F (at 2:51 PM)
Minimum temperature yesterday: 66 °F (at 5:51 AM)
Average temperature yesterday: 73 °F

Past Weeks' High & Low Weather Summary

 TemperatureHumidityPressure
High89 °F (Jun 23, 1:51 PM)94% (Jun 28, 5:51 AM)30.12 "Hg (Jun 28, 5:51 AM)
Low59 °F (Jun 27, 8:51 PM)32% (Jun 25, 12:51 PM)29.66 "Hg (Jun 28, 9:51 AM)
Average74 °F62%29.91 "Hg
* Reported Jun 19 6:51 AM — Jul 4 6:51 AM, New York, Weather by CustomWeather, © 2015

Note: Actual official high and low records may vary slightly from our data, if they occured in-between our weather recording intervals... More about our weather records

Advertising

New York weather history for previous 24 hours

 ConditionsComfort  
Time TempWeatherWind HumidityBarometerVisibility
6:51 AM
Sat, Jul 4
71 °FOvercast.No wind63%29.94 "Hg10 mi
5:51 AM70 °FPassing clouds.3 mph64%29.94 "Hg10 mi
4:51 AM70 °FPassing clouds.No wind71%29.95 "Hg10 mi
3:51 AM71 °FPassing clouds.3 mph63%29.96 "Hg10 mi
2:51 AM71 °FPassing clouds.3 mph63%29.96 "Hg10 mi
1:51 AM71 °FClear.5 mph68%29.98 "Hg10 mi
12:51 AM71 °FClear.No wind63%29.98 "Hg10 mi
11:51 PM
Fri, Jul 3
71 °FClear.5 mph63%29.97 "Hg10 mi
10:51 PM72 °FClear.No wind64%29.98 "Hg10 mi
9:51 PM73 °FClear.3 mph59%29.98 "Hg10 mi
8:51 PM74 °FSunny.No wind56%29.96 "Hg10 mi
7:51 PM75 °FSunny.N/A54%29.96 "Hg10 mi
6:51 PM78 °FSunny.No wind46%29.95 "Hg10 mi
5:51 PM79 °FPassing clouds.5 mph44%29.95 "Hg10 mi
4:51 PM79 °FSunny.No wind41%29.95 "Hg10 mi
3:51 PM80 °FSunny.No wind39%29.96 "Hg10 mi
2:51 PM80 °FSunny.No wind36%29.96 "Hg10 mi
1:51 PM79 °FSunny.3 mph38%29.97 "Hg10 mi
12:51 PM79 °FSunny.No wind35%29.98 "Hg10 mi
11:51 AM77 °FSunny.7 mph39%29.99 "Hg10 mi
10:51 AM73 °FSunny.No wind44%29.99 "Hg10 mi
9:51 AM71 °FSunny.6 mph51%29.98 "Hg10 mi
8:51 AM69 °FSunny.6 mph57%29.98 "Hg10 mi
Weather by CustomWeather, © 2015

See weather overviewHow to use our weather pages